Weather History for Cozumel, Mexico

Change the Weather History Date:

Friday, October 26, 2012

  Actual Average Record
Temperature  
Mean Temperature 78 °F -  
Max Temperature 84 °F 85 °F 89 °F (1997)
Min Temperature 73 °F 74 °F 66 °F (2013)
Cooling Degree Days 14    
Growing Degree Days 28 (Base 50)    
Moisture  
Dew Point 71 °F    
Average Humidity 83    
Maximum Humidity 100    
Minimum Humidity 58    
Precipitation  
Precipitation 0.00 in - - ()
Sea Level Pressure  
Sea Level Pressure 29.82 in    
Wind  
Wind Speed 8 mph ()    
Max Wind Speed 14 mph    
Max Gust Speed -    
Visibility 8.1 miles    
Events      
Averages and records for this station are not official NWS values.
T = Trace of Precipitation, MM = Missing Value Source: Averaged Metar Reports

Daily Weather History Graph

Daily Weather History Graph

Search for Another Location

Airport:

Trip Planner

Search our weather history database for the weather conditions in past years. The results will help you decide how hot, cold, wet, or windy it might be!

Date:

Astronomy

Oct. 26, 2012 Rise Set
Actual Time 6:47 AM CDT 6:15 PM CDT
Civil Twilight 6:24 AM CDT 6:38 PM CDT
Nautical Twilight 5:58 AM CDT 7:04 PM CDT
Astronomical Twilight 5:32 AM CDT 7:30 PM CDT
Moon 4:15 PM CDT (10/26) 4:02 AM CDT (10/26)
Length of Visible Light 12h 13m
Length of Day
11h 28m
Waxing Gibbous, 91% of the Moon is Illuminated
Oct 26
Waxing Gibbous
Oct 29
Full
Nov 6
Last Quarter
Nov 13
New
Nov 20
First Quarter

Hourly Weather History & Observations

Time (CDT) Temp. Heat Index Dew Point Humidity Pressure Visibility Wind Dir Wind Speed Gust Speed Precip Events Conditions
12:47 AM 73.4 °F - 73.4 °F 100% 29.79 in 7.0 mi NNW 8.1 mph - N/A   Partly Cloudy
1:41 AM 73.4 °F - 73.4 °F 100% 29.81 in 7.0 mi NNW 9.2 mph - N/A   Partly Cloudy
2:46 AM 73.4 °F - 73.4 °F 100% 29.79 in 7.0 mi North 10.4 mph - N/A   Partly Cloudy
3:45 AM 73.4 °F - 71.6 °F 94% 29.81 in 7.0 mi North 6.9 mph - N/A   Clear
4:50 AM 73.4 °F - 71.6 °F 94% 29.78 in 7.0 mi NNW 8.1 mph - N/A   Clear
5:51 AM 73.4 °F - 71.6 °F 94% 29.80 in 7.0 mi NNW 9.2 mph - N/A   Clear
6:47 AM 73.4 °F - 71.6 °F 94% 29.78 in 7.0 mi NNW 9.2 mph - N/A   Clear
7:41 AM 73.4 °F - 71.6 °F 94% 29.82 in 8.0 mi NNW 9.2 mph - N/A   Clear
8:44 AM 75.2 °F - 71.6 °F 89% 29.84 in 8.0 mi NNW 9.2 mph - N/A   Clear
9:41 AM 77.0 °F - 73.4 °F 89% 29.88 in 8.0 mi NW 8.1 mph - N/A   Clear
10:42 AM 78.8 °F - 71.6 °F 78% 29.85 in 10.0 mi NNW 9.2 mph - N/A   Clear
11:45 AM 80.6 °F 84.6 °F 71.6 °F 74% 29.85 in 10.0 mi NNW 9.2 mph - N/A   Partly Cloudy
12:43 PM 82.4 °F 86.3 °F 69.8 °F 66% 29.80 in 10.0 mi WNW 6.9 mph - N/A   Partly Cloudy
1:48 PM 82.4 °F 86.3 °F 69.8 °F 66% 29.80 in 10.0 mi WNW 6.9 mph - N/A   Partly Cloudy
2:43 PM 84.2 °F 87.3 °F 68.0 °F 58% 29.78 in 10.0 mi WNW 4.6 mph - N/A   Scattered Clouds
3:42 PM 80.6 °F 84.6 °F 71.6 °F 74% 29.81 in 10.0 mi NE 6.9 mph - N/A   Scattered Clouds
4:51 PM 80.6 °F 84.6 °F 71.6 °F 74% 29.78 in 10.0 mi ENE 8.1 mph - N/A   Scattered Clouds
5:49 PM 78.8 °F - 69.8 °F 74% 29.79 in 8.0 mi North 9.2 mph - N/A   Scattered Clouds
6:41 PM 77.0 °F - 68.0 °F 74% 29.78 in 7.0 mi North 13.8 mph - N/A   Partly Cloudy
7:42 PM 77.0 °F - 68.0 °F 74% 29.83 in 7.0 mi North 9.2 mph - N/A   Partly Cloudy
8:48 PM 75.2 °F - 69.8 °F 83% 29.85 in 7.0 mi NNW 11.5 mph - N/A   Partly Cloudy
9:52 PM 75.2 °F - 69.8 °F 83% 29.89 in 7.0 mi NNW 8.1 mph - N/A   Partly Cloudy
10:54 PM 73.4 °F - 69.8 °F 88% 29.87 in 7.0 mi NNW 9.2 mph - N/A   Partly Cloudy